Weather History for Mount Pleasant, SC

Change the Weather History Date:

Monday, October 29, 2012

  Actual Average (KCHS) Record (KCHS)
Temperature  
Mean Temperature 57 °F 63 °F  
Max Temperature 64 °F 74 °F 85 °F (1946)
Min Temperature 50 °F 52 °F 27 °F (1976)
Degree Days  
Heating Degree Days 8 4  
Month to date heating degree days 58  
Since 1 July heating degree days 61  
Cooling Degree Days 0 2  
Month to date cooling degree days 122  
Year to date cooling degree days 2260  
Growing Degree Days 7 (Base 50)    
Moisture  
Dew Point 40 °F    
Average Humidity 52    
Maximum Humidity 72    
Minimum Humidity 34    
Precipitation  
Precipitation 0.00 in 0.09 in 2.60 in (1959)
Month to date precipitation 3.57  
Year to date precipitation 45.31  
Sea Level Pressure  
Sea Level Pressure 29.60 in    
Wind  
Wind Speed 13 mph (NW)    
Max Wind Speed 21 mph    
Max Gust Speed 30 mph    
Visibility 10 miles    
Events      
T = Trace of Precipitation, MM = Missing Value Source: NWS Daily Summary

Daily Weather History Graph

Daily Weather History Graph

Search for Another Location

Airport:

Trip Planner

Search our weather history database for the weather conditions in past years. The results will help you decide how hot, cold, wet, or windy it might be!

Date:

Astronomy

Oct. 29, 2012 Rise Set
Actual Time 7:34 AM EDT 6:30 PM EDT
Civil Twilight 7:09 AM EDT 6:55 PM EDT
Nautical Twilight 6:40 AM EDT 7:24 PM EDT
Astronomical Twilight 6:11 AM EDT 7:53 PM EDT
Moon 6:23 PM EDT (10/29) 7:22 AM EDT (10/29)
Length of Visible Light 11h 46m
Length of Day
10h 55m
Full, 100% of the Moon is Illuminated
Oct 29
Full
Oct 29
Full
Nov 6
Last Quarter
Nov 13
New
Nov 20
First Quarter

Hourly Weather History & Observations

Time (EDT) Temp. Dew Point Humidity Pressure Visibility Wind Dir Wind Speed Gust Speed Precip Events Conditions
12:15 AM 62.6 °F 51.8 °F 68% 29.61 in 10.0 mi NW 10.4 mph - N/A   Scattered Clouds
12:35 AM 62.6 °F 51.8 °F 68% 29.62 in 10.0 mi NW 9.2 mph - N/A   Clear
12:55 AM 60.8 °F 51.8 °F 72% 29.62 in 10.0 mi NW 9.2 mph - N/A   Clear
1:15 AM 60.8 °F 51.8 °F 72% 29.62 in 10.0 mi NW 9.2 mph - N/A   Clear
1:35 AM 60.8 °F 50.0 °F 68% 29.62 in 10.0 mi NW 10.4 mph 16.1 mph N/A   Clear
1:55 AM 59.0 °F 50.0 °F 72% 29.62 in 10.0 mi NW 9.2 mph - N/A   Clear
2:35 AM 57.2 °F 48.2 °F 72% 29.62 in 10.0 mi NW 12.7 mph 18.4 mph N/A   Clear
2:55 AM 57.2 °F 46.4 °F 67% 29.62 in 10.0 mi NW 13.8 mph 23.0 mph N/A   Clear
3:35 AM 55.4 °F 42.8 °F 63% 29.62 in 10.0 mi NW 12.7 mph 23.0 mph N/A   Clear
3:55 AM 55.4 °F 42.8 °F 63% 29.62 in 10.0 mi NW 10.4 mph 17.3 mph N/A   Clear
4:15 AM 55.4 °F 42.8 °F 63% 29.62 in 10.0 mi NW 15.0 mph 26.5 mph N/A   Clear
4:35 AM 53.6 °F 41.0 °F 62% 29.62 in 10.0 mi NW 13.8 mph 21.9 mph N/A   Clear
4:55 AM 53.6 °F 41.0 °F 62% 29.62 in 10.0 mi NW 15.0 mph 24.2 mph N/A   Clear
5:15 AM 53.6 °F 39.2 °F 58% 29.63 in 10.0 mi NW 12.7 mph 21.9 mph N/A   Clear
5:35 AM 53.6 °F 39.2 °F 58% 29.63 in 10.0 mi NW 11.5 mph 17.3 mph N/A   Clear
5:55 AM 51.8 °F 39.2 °F 62% 29.63 in 10.0 mi NW 15.0 mph 18.4 mph N/A   Clear
6:15 AM 51.8 °F 39.2 °F 62% 29.63 in 10.0 mi NW 10.4 mph 17.3 mph N/A   Clear
6:55 AM 51.8 °F 39.2 °F 62% 29.64 in 10.0 mi NW 15.0 mph 20.7 mph N/A   Clear
7:15 AM 51.8 °F 37.4 °F 58% 29.64 in 10.0 mi NW 13.8 mph 21.9 mph N/A   Clear
7:35 AM 50.0 °F 37.4 °F 62% 29.64 in 10.0 mi NW 12.7 mph 21.9 mph N/A   Clear
7:55 AM 50.0 °F 37.4 °F 62% 29.65 in 10.0 mi NW 9.2 mph 17.3 mph N/A   Clear
8:15 AM 50.0 °F 39.2 °F 66% 29.65 in 10.0 mi NW 12.7 mph 18.4 mph N/A   Clear
8:35 AM 50.0 °F 37.4 °F 62% 29.66 in 10.0 mi NW 13.8 mph 21.9 mph N/A   Clear
8:55 AM 51.8 °F 37.4 °F 58% 29.66 in 10.0 mi NW 16.1 mph 21.9 mph N/A   Clear
9:15 AM 51.8 °F 37.4 °F 58% 29.66 in 10.0 mi WNW 15.0 mph 23.0 mph N/A   Clear
9:35 AM 51.8 °F 37.4 °F 58% 29.65 in 10.0 mi NW 13.8 mph 20.7 mph N/A   Clear
10:15 AM 53.6 °F 37.4 °F 54% 29.65 in 10.0 mi NW 17.3 mph 25.3 mph N/A   Clear
10:35 AM 55.4 °F 37.4 °F 51% 29.65 in 10.0 mi NW 18.4 mph 26.5 mph N/A   Clear
10:55 AM 55.4 °F 37.4 °F 51% 29.64 in 10.0 mi NW 19.6 mph 26.5 mph N/A   Clear
11:15 AM 57.2 °F 37.4 °F 48% 29.64 in 10.0 mi NW 19.6 mph 26.5 mph N/A   Clear
11:35 AM 57.2 °F 35.6 °F 44% 29.64 in 10.0 mi NW 17.3 mph 27.6 mph N/A   Clear
11:55 AM 57.2 °F 37.4 °F 48% 29.63 in 10.0 mi NW 16.1 mph 26.5 mph N/A   Clear
12:15 PM 59.0 °F 35.6 °F 42% 29.62 in 10.0 mi NW 17.3 mph 24.2 mph N/A   Clear
12:35 PM 59.0 °F 37.4 °F 45% 29.61 in 10.0 mi NW 20.7 mph 25.3 mph N/A   Clear
12:55 PM 60.8 °F 37.4 °F 42% 29.61 in 10.0 mi WNW 16.1 mph 26.5 mph N/A   Clear
1:15 PM 60.8 °F 37.4 °F 42% 29.60 in 10.0 mi WNW 12.7 mph 23.0 mph N/A   Clear
1:55 PM 62.6 °F 37.4 °F 39% 29.58 in 10.0 mi WNW 17.3 mph 21.9 mph N/A   Clear
2:15 PM 62.6 °F 37.4 °F 39% 29.57 in 10.0 mi NW 18.4 mph 28.8 mph N/A   Clear
2:55 PM 64.4 °F 37.4 °F 37% 29.55 in 10.0 mi NW 16.1 mph 21.9 mph N/A   Clear
3:15 PM 62.6 °F 35.6 °F 37% 29.54 in 10.0 mi WNW 19.6 mph 25.3 mph N/A   Clear
3:35 PM 62.6 °F 37.4 °F 39% 29.54 in 10.0 mi NW 16.1 mph 29.9 mph N/A   Clear
3:55 PM 64.4 °F 35.6 °F 34% 29.53 in 10.0 mi WNW 17.3 mph 24.2 mph N/A   Clear
4:15 PM 64.4 °F 37.4 °F 37% 29.53 in 10.0 mi NW 15.0 mph 24.2 mph N/A   Partly Cloudy
4:35 PM 64.4 °F 37.4 °F 37% 29.53 in 10.0 mi NW 13.8 mph 19.6 mph N/A   Scattered Clouds
4:55 PM 62.6 °F 37.4 °F 39% 29.53 in 10.0 mi WNW 13.8 mph 20.7 mph N/A   Mostly Cloudy
5:15 PM 62.6 °F 37.4 °F 39% 29.53 in 10.0 mi WNW 9.2 mph 19.6 mph N/A   Overcast
5:35 PM 60.8 °F 37.4 °F 42% 29.53 in 10.0 mi NW 12.7 mph 20.7 mph N/A   Overcast
6:15 PM 60.8 °F 37.4 °F 42% 29.53 in 10.0 mi WNW 8.1 mph - N/A   Overcast
6:35 PM 60.8 °F 37.4 °F 42% 29.54 in 10.0 mi WNW 6.9 mph - N/A   Overcast
6:55 PM 60.8 °F 37.4 °F 42% 29.54 in 10.0 mi WNW 8.1 mph 16.1 mph N/A   Overcast
7:15 PM 60.8 °F 37.4 °F 42% 29.54 in 10.0 mi West 8.1 mph - N/A   Overcast
7:35 PM 60.8 °F 37.4 °F 42% 29.54 in 10.0 mi WNW 8.1 mph - N/A   Overcast
7:55 PM 60.8 °F 37.4 °F 42% 29.54 in 10.0 mi West 10.4 mph - N/A   Overcast
8:15 PM 60.8 °F 37.4 °F 42% 29.55 in 10.0 mi NW 8.1 mph - N/A   Overcast
8:35 PM 59.0 °F 37.4 °F 45% 29.56 in 10.0 mi WNW 13.8 mph 18.4 mph N/A   Overcast
8:55 PM 59.0 °F 35.6 °F 42% 29.57 in 10.0 mi NW 12.7 mph 19.6 mph N/A   Overcast
11:55 PM 53.6 °F 33.8 °F 47% 29.60 in 10.0 mi West 10.4 mph - N/A   Clear